{"data":{"norad_id":66864,"epoch":"2026-05-24T17:46:40.869984Z","epoch_age_seconds":93365,"freshness":"FRESH","line1":"1 66864U 25281S   26144.74075081  .00013469  00000+0  49793-3 0  9994","line2":"2 66864  43.0022 274.2319 0001181 274.2451  85.8266 15.27589746 27814","mean_motion":15.27589746,"eccentricity":0.0001181,"inclination_deg":43.0022,"raan_deg":274.2319,"arg_perigee_deg":274.2451,"mean_anomaly_deg":85.8266,"bstar":0.00049793,"rev_number":2781,"period_min":94.266147293188,"perigee_km":482.20961053326,"apogee_km":483.83021579615,"semimajor_km":6861.1569131647,"source":"CELESTRAK","updated_at":"2026-05-25T13:38:21.343701Z"}}